Location: Lawrence Hall of Science
(37.8785°N, 122.2415°W)
Time: 18:27:19
(UTC-07:00)

Cosmos 1461 - Visible Passes

Search period start: 23 April 2017 00:00
Search period end: 03 May 2017 00:00
Orbit: 527 x 647 km, 65.0° (Epoch: 22 April)

Date Brightness Start Highest point End Pass type
(mag) Time Alt. Az. Time Alt. Az. Time Alt. Az.
23 Apr 5.1 03:32:16 10° NNW 03:33:28 18° NNW 03:33:28 18° NNW visible
24 Apr 6.1 02:02:15 10° NNE 02:02:33 11° NNE 02:02:33 11° NNE visible
25 Apr 6.0 02:07:59 10° N 02:08:25 12° N 02:08:25 12° N visible
26 Apr 6.0 02:14:20 10° N 02:14:29 11° N 02:14:29 11° N visible
29 Apr 6.2 00:56:50 10° N 00:56:55 10° N 00:56:55 10° N visible
30 Apr 6.1 01:03:04 10° N 01:03:21 11° N 01:03:21 11° N visible
01 May 6.1 01:09:36 10° NNW 01:09:48 11° NNW 01:09:48 11° NNW visible
02 May 5.8 23:45:42 10° NNE 23:46:23 12° NNE 23:46:23 12° NNE visible
